,,,PA_Meas_PMT16A,,PR_Meas_QMR101_102,,RH_Meas_QMH101,,SR_Meas_QMS101,,TA_Meas_QMH101,,GenWind,,GenWind,
date,time,status,PA,status,PR,status,RH,status,SR,status,TA,status,DirAvg,status,SpdAvg,
2010-08-05, 00:00:05,VALID,999.543,VALID,0,VALID,92.3184,VALID,0,VALID,24.5013,VALID,342,VALID,0,
2010-08-05, 00:01:05,VALID,999.594,VALID,0,VALID,92.3337,VALID,0,VALID,24.5013,VALID,342,VALID,0,
2010-08-05, 00:02:05,VALID,999.59,VALID,0,VALID,92.3718,VALID,0,VALID,24.5013,VALID,342,VALID,0,
2010-08-05, 00:03:05,VALID,999.582,VALID,0,VALID,92.4557,VALID,0,VALID,24.5209,VALID,278,VALID,0,
2010-08-05, 00:04:05,VALID,999.614,VALID,0,VALID,92.532,VALID,0,VALID,24.5385,VALID,266,VALID,0,
2010-08-05, 00:05:05,VALID,999.619,VALID,0,VALID,92.5778,VALID,0,VALID,24.5794,VALID,266,VALID,0,
2010-08-05, 00:06:05,VALID,999.625,VALID,0,VALID,92.5549,VALID,0,VALID,24.5775,VALID,262,VALID,0,
2010-08-05, 00:07:05,VALID,999.649,VALID,0,VALID,92.4786,VALID,0,VALID,24.638,VALID,262,VALID,0,
2010-08-05, 00:08:05,VALID,999.646,VALID,0,VALID,92.4252,VALID,0,VALID,24.638,VALID,262,VALID,0,
2010-08-05, 00:09:05,VALID,999.646,VALID,0,VALID,92.326,VALID,0,VALID,24.6575,VALID,262,VALID,0,
2010-08-05, 00:10:05,VALID,999.658,VALID,0,VALID,92.2574,VALID,0,VALID,24.6575,VALID,262,VALID,0,
2010-08-05, 00:11:05,VALID,999.672,VALID,0,VALID,92.1277,VALID,0,VALID,24.6575,VALID,262,VALID,0,
2010-08-05, 00:12:05,VALID,999.645,VALID,0,VALID,92.0285,VALID,0,VALID,24.6751,VALID,236,VALID,0,
2010-08-05, 00:13:05,VALID,999.666,VALID,0,VALID,91.8454,VALID,0,VALID,24.6965,VALID,236,VALID,0,
2010-08-05, 00:14:05,VALID,999.659,VALID,0,VALID,91.7767,VALID,0,VALID,24.7142,VALID,237,VALID,0,
2010-08-05, 00:15:05,VALID,999.668,VALID,0,VALID,91.6928,VALID,0,VALID,24.7337,VALID,232,VALID,0,
2010-08-05, 00:16:05,VALID,999.662,VALID,0,VALID,91.6241,VALID,0,VALID,24.7746,VALID,218,VALID,0,
2010-08-05, 00:17:05,VALID,999.683,VALID,0,VALID,91.5554,VALID,0,VALID,24.7941,VALID,218,VALID,0,
2010-08-05, 00:18:05,VALID,999.686,VALID,0,VALID,91.5478,VALID,0,VALID,24.7922,VALID,218,VALID,0,
2010-08-05, 00:19:05,VALID,999.642,VALID,0,VALID,91.4639,VALID,0,VALID,24.8136,VALID,248,VALID,0,
2010-08-05, 00:20:05,VALID,999.624,VALID,0,VALID,91.4791,VALID,0,VALID,24.8332,VALID,241,VALID,0,
2010-08-05, 00:21:05,VALID,999.618,VALID,0,VALID,91.4105,VALID,0,VALID,24.8117,VALID,239,VALID,0,
2010-08-05, 00:22:05,VALID,999.6,VALID,0,VALID,91.3647,VALID,0,VALID,24.8332,VALID,232,VALID,0,
2010-08-05, 00:23:05,VALID,999.563,VALID,0,VALID,91.38,VALID,0,VALID,24.8332,VALID,232,VALID,0,
2010-08-05, 00:24:05,VALID,999.564,VALID,0,VALID,91.3266,VALID,0,VALID,24.8117,VALID,233,VALID,0,
2010-08-05, 00:25:05,VALID,999.543,VALID,0,VALID,91.3037,VALID,0,VALID,24.8332,VALID,233,VALID,0,
2010-08-05, 00:26:05,VALID,999.527,VALID,0,VALID,91.3113,VALID,0,VALID,24.8527,VALID,233,VALID,0,
2010-08-05, 00:27:05,VALID,999.523,VALID,0,VALID,91.3494,VALID,0,VALID,24.8117,VALID,233,VALID,0,
2010-08-05, 00:28:05,VALID,999.517,VALID,0,VALID,91.2579,VALID,0,VALID,24.8332,VALID,235,VALID,0,
2010-08-05, 00:29:05,VALID,999.485,VALID,0,VALID,91.1892,VALID,0,VALID,24.8527,VALID,235,VALID,0,
2010-08-05, 00:30:05,VALID,999.481,VALID,0,VALID,91.1587,VALID,0,VALID,24.8313,VALID,235,VALID,0,
2010-08-05, 00:31:05,VALID,999.508,VALID,0,VALID,91.1129,VALID,0,VALID,24.8527,VALID,235,VALID,0,
2010-08-05, 00:32:05,VALID,999.474,VALID,0,VALID,91.1434,VALID,0,VALID,24.8117,VALID,235,VALID,0,
2010-08-05, 00:33:05,VALID,999.481,VALID,0,VALID,91.1587,VALID,0,VALID,24.8136,VALID,235,VALID,0,
2010-08-05, 00:34:05,VALID,999.496,VALID,0,VALID,91.2503,VALID,0,VALID,24.7746,VALID,235,VALID,0,
2010-08-05, 00:35:05,VALID,999.523,VALID,0,VALID,91.3113,VALID,0,VALID,24.7746,VALID,235,VALID,0,
2010-08-05, 00:36:05,VALID,999.547,VALID,0,VALID,91.3876,VALID,0,VALID,24.7356,VALID,235,VALID,0,
2010-08-05, 00:37:05,VALID,999.558,VALID,0,VALID,91.4257,VALID,0,VALID,24.716,VALID,235,VALID,0,
2010-08-05, 00:38:05,VALID,999.557,VALID,0,VALID,91.5478,VALID,0,VALID,24.716,VALID,235,VALID,0,
2010-08-05, 00:39:05,VALID,999.582,VALID,0,VALID,91.708,VALID,0,VALID,24.716,VALID,235,VALID,0,
2010-08-05, 00:40:05,VALID,999.578,VALID,0,VALID,91.7691,VALID,0,VALID,24.6751,VALID,235,VALID,0,
2010-08-05, 00:41:05,VALID,999.558,VALID,0,VALID,91.8759,VALID,0,VALID,24.6751,VALID,235,VALID,0,
2010-08-05, 00:42:05,VALID,999.504,VALID,0,VALID,91.9598,VALID,0.112286,VALID,24.6751,VALID,235,VALID,0,
2010-08-05, 00:43:05,VALID,999.477,VALID,0,VALID,92.0209,VALID,0,VALID,24.677,VALID,235,VALID,0,
2010-08-05, 00:44:05,VALID,999.487,VALID,0,VALID,92.0895,VALID,0,VALID,24.6361,VALID,235,VALID,0,
2010-08-05, 00:45:05,VALID,999.457,VALID,0,VALID,92.1048,VALID,0,VALID,24.677,VALID,235,VALID,0,
2010-08-05, 00:46:05,VALID,999.457,VALID,0,VALID,92.0895,VALID,0,VALID,24.638,VALID,205,VALID,0,
2010-08-05, 00:47:05,VALID,999.459,VALID,0,VALID,91.2503,VALID,0,VALID,24.5971,VALID,206,VALID,0,
2010-08-05, 00:48:05,VALID,999.432,VALID,0,VALID,90.4034,VALID,0,VALID,24.6556,VALID,195,VALID,0,
2010-08-05, 00:49:05,VALID,999.439,VALID,0,VALID,89.6328,VALID,0,VALID,24.6946,VALID,194,VALID,1.52539,
2010-08-05, 00:50:05,VALID,999.464,VALID,0,VALID,88.8851,VALID,0,VALID,24.7746,VALID,184,VALID,1.17773,
2010-08-05, 00:51:05,VALID,999.409,VALID,0,VALID,88.969,VALID,0,VALID,24.8136,VALID,181,VALID,1.28789,
2010-08-05, 00:52:05,VALID,999.405,VALID,0,VALID,89.0987,VALID,0,VALID,24.8313,VALID,192,VALID,0.809375,
2010-08-05, 00:53:05,VALID,999.403,VALID,0,VALID,88.908,VALID,0,VALID,24.8508,VALID,203,VALID,0.867578,
2010-08-05, 00:54:05,VALID,999.376,VALID,0,VALID,88.9156,VALID,0,VALID,24.8703,VALID,203,VALID,0.785937,
2010-08-05, 00:55:05,VALID,999.382,VALID,0,VALID,88.8164,VALID,0,VALID,24.8917,VALID,212,VALID,0.616406,
2010-08-05, 00:56:05,VALID,999.358,VALID,0,VALID,88.7706,VALID,0,VALID,24.8703,VALID,213,VALID,0.8875,
2010-08-05, 00:57:05,VALID,999.348,VALID,0,VALID,88.6638,VALID,0,VALID,24.8703,VALID,216,VALID,0.658594,
2010-08-05, 00:58:05,VALID,999.337,VALID,0,VALID,88.7859,VALID,0,VALID,24.9112,VALID,225,VALID,0.510547,
2010-08-05, 00:59:05,VALID,999.336,VALID,0,VALID,88.7401,VALID,0,VALID,24.8898,VALID,234,VALID,0.744531,
2010-08-05, 01:00:05,VALID,999.338,VALID,0,VALID,88.7477,VALID,0,VALID,24.8898,VALID,236,VALID,0.50625,
2010-08-05, 01:01:05,VALID,999.314,VALID,0,VALID,88.6257,VALID,0,VALID,24.8917,VALID,236,VALID,0.660937,
2010-08-05, 01:02:05,VALID,999.306,VALID,0,VALID,89.2055,VALID,0,VALID,24.9308,VALID,236,VALID,0.496875,
2010-08-05, 01:03:05,VALID,999.304,VALID,0,VALID,89.1903,VALID,0,VALID,24.8703,VALID,270,VALID,1.17734,
2010-08-05, 01:04:05,VALID,999.315,VALID,0,VALID,89.2437,VALID,0,VALID,24.8722,VALID,255,VALID,0.709375,
2010-08-05, 01:05:05,VALID,999.308,VALID,0,VALID,89.4573,VALID,0,VALID,24.8527,VALID,252,VALID,0.501562,
2010-08-05, 01:06:05,VALID,999.317,VALID,0,VALID,88.9919,VALID,0,VALID,24.8136,VALID,210,VALID,0.357422,
2010-08-05, 01:07:05,VALID,999.325,VALID,0,VALID,89.2742,VALID,0,VALID,24.8136,VALID,238,VALID,0,
2010-08-05, 01:08:05,VALID,999.31,VALID,0,VALID,89.4039,VALID,0,VALID,24.7727,VALID,238,VALID,0,
2010-08-05, 01:09:05,VALID,999.331,VALID,0,VALID,89.4878,VALID,0,VALID,24.7532,VALID,238,VALID,0,
2010-08-05, 01:10:05,VALID,999.305,VALID,0,VALID,89.5641,VALID,0,VALID,24.7551,VALID,238,VALID,0,
2010-08-05, 01:11:05,VALID,999.308,VALID,0,VALID,89.6938,VALID,0,VALID,24.7356,VALID,238,VALID,0,
2010-08-05, 01:12:05,VALID,999.277,VALID,0,VALID,89.854,VALID,0,VALID,24.716,VALID,238,VALID,0,
2010-08-05, 01:13:05,VALID,999.238,VALID,0,VALID,89.9456,VALID,0,VALID,24.6965,VALID,238,VALID,0,
2010-08-05, 01:14:05,VALID,999.231,VALID,0,VALID,90.0524,VALID,0,VALID,24.6575,VALID,238,VALID,0,
2010-08-05, 01:15:05,VALID,999.191,VALID,0,VALID,90.1668,VALID,0,VALID,24.6166,VALID,238,VALID,0,
2010-08-05, 01:16:05,VALID,999.164,VALID,0,VALID,90.2584,VALID,0,VALID,24.638,VALID,238,VALID,0,
2010-08-05, 01:17:05,VALID,999.117,VALID,0,VALID,90.4186,VALID,0,VALID,24.6184,VALID,238,VALID,0,
2010-08-05, 01:18:05,VALID,999.123,VALID,0,VALID,90.2889,VALID,0,VALID,24.5989,VALID,52,VALID,0,
2010-08-05, 01:19:05,VALID,999.108,VALID,0,VALID,90.5865,VALID,0,VALID,24.5989,VALID,49,VALID,0,
2010-08-05, 01:20:05,VALID,999.096,VALID,0,VALID,90.7696,VALID,0,VALID,24.5989,VALID,40,VALID,0,
2010-08-05, 01:21:05,VALID,999.113,VALID,0,VALID,90.8154,VALID,0,VALID,24.5794,VALID,40,VALID,0,
2010-08-05, 01:22:05,VALID,999.112,VALID,0,VALID,90.8535,VALID,0,VALID,24.5404,VALID,40,VALID,0,
2010-08-05, 01:23:05,VALID,999.098,VALID,0,VALID,90.8764,VALID,0,VALID,24.4995,VALID,40,VALID,0,
2010-08-05, 01:24:05,VALID,999.054,VALID,0,VALID,90.8917,VALID,0,VALID,24.4604,VALID,40,VALID,0,
2010-08-05, 01:25:05,VALID,999.081,VALID,0,VALID,91.0519,VALID,0,VALID,24.4818,VALID,56,VALID,0,
2010-08-05, 01:26:05,VALID,999.076,VALID,0,VALID,91.174,VALID,0,VALID,24.4818,VALID,57,VALID,1.2332,
2010-08-05, 01:27:05,VALID,999.052,VALID,0,VALID,91.2731,VALID,0,VALID,24.4623,VALID,61,VALID,1.46797,
2010-08-05, 01:28:05,VALID,998.996,VALID,0,VALID,91.3723,VALID,0,VALID,24.4428,VALID,70,VALID,1.45859,
2010-08-05, 01:29:05,VALID,998.986,VALID,0,VALID,91.4486,VALID,0,VALID,24.4428,VALID,64,VALID,1.63008,
2010-08-05, 01:30:05,VALID,998.974,VALID,0,VALID,91.4563,VALID,0,VALID,24.4233,VALID,65,VALID,1.71211,
2010-08-05, 01:31:05,VALID,999.001,VALID,0,VALID,91.4334,VALID,0,VALID,24.4233,VALID,72,VALID,1.42773,
2010-08-05, 01:32:05,VALID,998.973,VALID,0,VALID,91.6241,VALID,0,VALID,24.4428,VALID,60,VALID,1.07461,
2010-08-05, 01:33:05,VALID,998.976,VALID,0,VALID,91.8606,VALID,0,VALID,24.4409,VALID,46,VALID,1.1543,
2010-08-05, 01:34:04,VALID,999.005,VALID,0,VALID,91.9369,VALID,0,VALID,24.4214,VALID,344,VALID,0.680469,
2010-08-05, 01:35:04,VALID,999.007,VALID,0,VALID,92.0285,VALID,0,VALID,24.4233,VALID,357,VALID,1.40547,
2010-08-05, 01:36:04,VALID,998.989,VALID,0,VALID,92.0437,VALID,0,VALID,24.4233,VALID,343,VALID,1.11914,
2010-08-05, 01:37:04,VALID,998.986,VALID,0,VALID,92.0361,VALID,0,VALID,24.4019,VALID,359,VALID,0.780078,
2010-08-05, 01:38:04,VALID,998.986,VALID,0,VALID,91.998,VALID,0,VALID,24.3842,VALID,3,VALID,0.438281,
2010-08-05, 01:39:04,VALID,998.982,VALID,0,VALID,91.998,VALID,0,VALID,24.3647,VALID,7,VALID,0.68125,
2010-08-05, 01:40:04,VALID,998.955,VALID,0,VALID,92.0209,VALID,0,VALID,24.3452,VALID,28,VALID,1.07148,
2010-08-05, 01:41:04,VALID,998.928,VALID,0,VALID,91.998,VALID,0,VALID,24.3452,VALID,11,VALID,1.64727,
2010-08-05, 01:42:04,VALID,998.93,VALID,0,VALID,92.0361,VALID,0,VALID,24.3257,VALID,27,VALID,1.19766,
2010-08-05, 01:43:04,VALID,998.922,VALID,0,VALID,92.0437,VALID,0,VALID,24.3062,VALID,25,VALID,1.01641,
2010-08-05, 01:44:04,VALID,998.935,VALID,0,VALID,92.059,VALID,0,VALID,24.3062,VALID,13,VALID,1.2082,
2010-08-05, 01:45:04,VALID,998.922,VALID,0,VALID,92.0971,VALID,0,VALID,24.2653,VALID,350,VALID,1.17344,
2010-08-05, 01:46:04,VALID,998.935,VALID,0,VALID,92.12,VALID,0,VALID,24.2671,VALID,304,VALID,0.741016,
2010-08-05, 01:47:04,VALID,998.944,VALID,0,VALID,92.2497,VALID,0,VALID,24.2671,VALID,299,VALID,0.796875,
2010-08-05, 01:48:04,VALID,998.923,VALID,0,VALID,92.3337,VALID,0,VALID,24.2866,VALID,293,VALID,0.797656,
2010-08-05, 01:49:04,VALID,998.915,VALID,0,VALID,92.3413,VALID,0,VALID,24.2866,VALID,304,VALID,0.535547,
2010-08-05, 01:50:04,VALID,998.89,VALID,0,VALID,92.3337,VALID,0,VALID,24.3062,VALID,304,VALID,0,
2010-08-05, 01:51:04,VALID,998.901,VALID,0,VALID,92.326,VALID,0,VALID,24.2653,VALID,301,VALID,0,
2010-08-05, 01:52:04,VALID,998.87,VALID,0,VALID,92.3108,VALID,0,VALID,24.2866,VALID,301,VALID,0,
2010-08-05, 01:53:04,VALID,998.89,VALID,0,VALID,92.3108,VALID,0,VALID,24.2866,VALID,301,VALID,0,
2010-08-05, 01:54:04,VALID,998.904,VALID,0,VALID,92.2955,VALID,0,VALID,24.2866,VALID,301,VALID,0,
2010-08-05, 01:55:04,VALID,998.922,VALID,0,VALID,92.2726,VALID,0,VALID,24.2653,VALID,301,VALID,0,
2010-08-05, 01:56:04,VALID,998.938,VALID,0,VALID,92.2879,VALID,0,VALID,24.2866,VALID,301,VALID,0,
2010-08-05, 01:57:04,VALID,998.972,VALID,0,VALID,92.3184,VALID,0,VALID,24.2653,VALID,288,VALID,0.803516,
2010-08-05, 01:58:04,VALID,999.013,VALID,0,VALID,92.3642,VALID,0,VALID,24.2653,VALID,265,VALID,0.903125,
2010-08-05, 01:59:04,VALID,999.022,VALID,0,VALID,92.41,VALID,0,VALID,24.2653,VALID,268,VALID,0.880859,
2010-08-05, 02:00:04,VALID,999.021,VALID,0,VALID,92.4023,VALID,0,VALID,24.2458,VALID,292,VALID,0.875391,
2010-08-05, 02:01:04,VALID,999.02,VALID,0,VALID,92.41,VALID,0,VALID,24.2653,VALID,287,VALID,0.907422,
2010-08-05, 02:02:04,VALID,998.989,VALID,0,VALID,92.4176,VALID,0,VALID,24.2458,VALID,298,VALID,0.538672,
2010-08-05, 02:03:04,VALID,998.96,VALID,0,VALID,92.3794,VALID,0,VALID,24.2458,VALID,298,VALID,0,
2010-08-05, 02:04:04,VALID,998.93,VALID,0,VALID,92.4023,VALID,0,VALID,24.2458,VALID,298,VALID,0,
2010-08-05, 02:05:04,VALID,998.943,VALID,0,VALID,92.3947,VALID,0,VALID,24.2458,VALID,298,VALID,0,
2010-08-05, 02:06:04,VALID,998.931,VALID,0,VALID,92.3566,VALID,0,VALID,24.2476,VALID,298,VALID,0,
2010-08-05, 02:07:04,VALID,998.928,VALID,0,VALID,92.3337,VALID,0,VALID,24.2263,VALID,298,VALID,0,
2010-08-05, 02:08:04,VALID,998.906,VALID,0,VALID,92.2879,VALID,0,VALID,24.2476,VALID,303,VALID,0,
2010-08-05, 02:09:04,VALID,998.943,VALID,0,VALID,92.2726,VALID,0,VALID,24.2263,VALID,4,VALID,0,
2010-08-05, 02:10:04,VALID,998.933,VALID,0,VALID,92.2421,VALID,0,VALID,24.2458,VALID,37,VALID,0,
2010-08-05, 02:11:04,VALID,998.919,VALID,0,VALID,92.1963,VALID,0,VALID,24.2671,VALID,38,VALID,0,
2010-08-05, 02:12:04,VALID,998.934,VALID,0,VALID,92.1811,VALID,0,VALID,24.2458,VALID,96,VALID,0.710547,
2010-08-05, 02:13:04,VALID,998.897,VALID,0,VALID,92.2192,VALID,0,VALID,24.2653,VALID,96,VALID,1.10469,
2010-08-05, 02:14:04,VALID,998.918,VALID,0,VALID,92.265,VALID,0,VALID,24.3062,VALID,92,VALID,0.91875,
2010-08-05, 02:15:04,VALID,998.908,VALID,0,VALID,92.3108,VALID,0,VALID,24.283,VALID,78,VALID,0.998438,
2010-08-05, 02:16:04,VALID,998.919,VALID,0,VALID,92.326,VALID,0,VALID,24.3238,VALID,72,VALID,0.83125,
2010-08-05, 02:17:04,VALID,998.924,VALID,0,VALID,92.3184,VALID,0,VALID,24.3257,VALID,72,VALID,0,
2010-08-05, 02:18:04,VALID,998.914,VALID,0,VALID,92.2879,VALID,0,VALID,24.3043,VALID,72,VALID,0,
2010-08-05, 02:19:04,VALID,998.926,VALID,0,VALID,92.3031,VALID,0,VALID,24.3043,VALID,72,VALID,0,
2010-08-05, 02:20:04,VALID,998.901,VALID,0,VALID,92.2726,VALID,0.112286,VALID,24.3238,VALID,72,VALID,0,
2010-08-05, 02:21:04,VALID,998.922,VALID,0,VALID,92.2803,VALID,0,VALID,24.3257,VALID,72,VALID,0,
2010-08-05, 02:22:04,VALID,998.872,VALID,0,VALID,92.2574,VALID,0,VALID,24.3257,VALID,72,VALID,0,
2010-08-05, 02:23:04,VALID,998.883,VALID,0,VALID,92.2726,VALID,0,VALID,24.2848,VALID,72,VALID,0,
2010-08-05, 02:24:04,VALID,998.843,VALID,0,VALID,92.2726,VALID,0,VALID,24.2848,VALID,72,VALID,0,
2010-08-05, 02:25:04,VALID,998.861,VALID,0,VALID,92.326,VALID,0,VALID,24.2848,VALID,72,VALID,0,
2010-08-05, 02:26:04,VALID,998.813,VALID,0,VALID,92.3489,VALID,0.112286,VALID,24.2848,VALID,72,VALID,0,
2010-08-05, 02:27:04,VALID,998.78,VALID,0,VALID,92.4176,VALID,0.112286,VALID,24.2653,VALID,72,VALID,0,
2010-08-05, 02:28:04,VALID,998.744,VALID,0,VALID,92.4328,VALID,0,VALID,24.2653,VALID,72,VALID,0,
2010-08-05, 02:29:04,VALID,998.742,VALID,0,VALID,92.4939,VALID,0,VALID,24.2653,VALID,72,VALID,0,
2010-08-05, 02:30:04,VALID,998.71,VALID,0,VALID,92.5168,VALID,0,VALID,24.2671,VALID,72,VALID,0,
2010-08-05, 02:31:04,VALID,998.71,VALID,0,VALID,92.5473,VALID,0,VALID,24.2653,VALID,72,VALID,0,
2010-08-05, 02:32:04,VALID,998.676,VALID,0,VALID,92.5626,VALID,0,VALID,24.2458,VALID,72,VALID,0,
2010-08-05, 02:33:04,VALID,998.712,VALID,0,VALID,92.5702,VALID,0,VALID,24.2458,VALID,109,VALID,0,
2010-08-05, 02:34:04,VALID,998.71,VALID,0,VALID,92.6083,VALID,0,VALID,24.2458,VALID,109,VALID,0,
2010-08-05, 02:35:04,VALID,998.699,VALID,0,VALID,92.6312,VALID,0,VALID,24.2458,VALID,109,VALID,0,
2010-08-05, 02:36:04,VALID,998.7,VALID,0,VALID,92.6312,VALID,0,VALID,24.2458,VALID,115,VALID,0,
2010-08-05, 02:37:04,VALID,998.672,VALID,0,VALID,92.6465,VALID,0,VALID,24.2458,VALID,110,VALID,0,
2010-08-05, 02:38:04,VALID,998.674,VALID,0,VALID,92.6312,VALID,0.112286,VALID,24.2458,VALID,92,VALID,0,
2010-08-05, 02:39:04,VALID,998.671,VALID,0,VALID,92.6236,VALID,0,VALID,24.2653,VALID,71,VALID,0,
2010-08-05, 02:40:04,VALID,998.666,VALID,0,VALID,92.6236,VALID,0,VALID,24.2653,VALID,71,VALID,0,
2010-08-05, 02:41:04,VALID,998.654,VALID,0,VALID,92.6083,VALID,0,VALID,24.2653,VALID,74,VALID,0,
2010-08-05, 02:42:04,VALID,998.641,VALID,0,VALID,92.6083,VALID,0,VALID,24.2848,VALID,82,VALID,0,
2010-08-05, 02:43:04,VALID,998.637,VALID,0,VALID,92.6007,VALID,0,VALID,24.2848,VALID,82,VALID,0,
2010-08-05, 02:44:04,VALID,998.643,VALID,0,VALID,92.5778,VALID,0,VALID,24.2634,VALID,80,VALID,0,
2010-08-05, 02:45:04,VALID,998.634,VALID,0,VALID,92.5549,VALID,0,VALID,24.2653,VALID,79,VALID,0,
2010-08-05, 02:46:04,VALID,998.627,VALID,0,VALID,92.5244,VALID,0,VALID,24.2866,VALID,84,VALID,0,
2010-08-05, 02:47:04,VALID,998.59,VALID,0,VALID,92.5168,VALID,0,VALID,24.2653,VALID,86,VALID,0,
2010-08-05, 02:48:04,VALID,998.584,VALID,0,VALID,92.5015,VALID,0,VALID,24.2653,VALID,84,VALID,0,
2010-08-05, 02:49:04,VALID,998.537,VALID,0,VALID,92.4863,VALID,0,VALID,24.2653,VALID,89,VALID,0,
2010-08-05, 02:50:04,VALID,998.549,VALID,0,VALID,92.4557,VALID,0,VALID,24.2653,VALID,90,VALID,0,
2010-08-05, 02:51:04,VALID,998.546,VALID,0,VALID,92.4481,VALID,0,VALID,24.2866,VALID,98,VALID,0,
2010-08-05, 02:52:04,VALID,998.53,VALID,0,VALID,92.4176,VALID,0,VALID,24.2671,VALID,108,VALID,0,
2010-08-05, 02:53:04,VALID,998.518,VALID,0,VALID,92.3871,VALID,0,VALID,24.2653,VALID,107,VALID,0,
2010-08-05, 02:54:04,VALID,998.504,VALID,0,VALID,92.3642,VALID,0,VALID,24.2653,VALID,107,VALID,0,
2010-08-05, 02:55:04,VALID,998.464,VALID,0,VALID,92.3413,VALID,0,VALID,24.2866,VALID,107,VALID,0,
2010-08-05, 02:56:04,VALID,998.449,VALID,0,VALID,92.3184,VALID,0,VALID,24.2458,VALID,108,VALID,0,
2010-08-05, 02:57:04,VALID,998.446,VALID,0,VALID,92.3031,VALID,0,VALID,24.2671,VALID,127,VALID,0,
2010-08-05, 02:58:04,VALID,998.397,VALID,0,VALID,92.2879,VALID,0,VALID,24.2671,VALID,149,VALID,0,
2010-08-05, 02:59:04,VALID,998.391,VALID,0,VALID,92.2803,VALID,0,VALID,24.2866,VALID,153,VALID,0,
2010-08-05, 03:00:04,VALID,998.38,VALID,0,VALID,92.2803,VALID,0,VALID,24.2653,VALID,153,VALID,0,
2010-08-05, 03:01:04,VALID,998.387,VALID,0,VALID,92.2116,VALID,0,VALID,24.2848,VALID,152,VALID,0.215234,
2010-08-05, 03:02:04,VALID,998.38,VALID,0,VALID,92.1353,VALID,0,VALID,24.3452,VALID,145,VALID,0.982813,
2010-08-05, 03:03:04,VALID,998.401,VALID,0,VALID,92.0361,VALID,0,VALID,24.3647,VALID,137,VALID,1.08945,
2010-08-05, 03:04:04,VALID,998.426,VALID,0,VALID,91.9903,VALID,0,VALID,24.3647,VALID,137,VALID,1.26289,
2010-08-05, 03:05:04,VALID,998.443,VALID,0,VALID,91.9369,VALID,0,VALID,24.3647,VALID,134,VALID,1.3168,
2010-08-05, 03:06:04,VALID,998.446,VALID,0,VALID,91.8377,VALID,0,VALID,24.3842,VALID,131,VALID,0.942578,
2010-08-05, 03:07:04,VALID,998.462,VALID,0,VALID,91.7767,VALID,0,VALID,24.3842,VALID,152,VALID,0.777734,
2010-08-05, 03:08:04,VALID,998.469,VALID,0,VALID,91.5631,VALID,0,VALID,24.3842,VALID,137,VALID,0.902734,
2010-08-05, 03:09:04,VALID,998.477,VALID,0,VALID,91.3342,VALID,0,VALID,24.3629,VALID,135,VALID,0.584375,
2010-08-05, 03:10:04,VALID,998.489,VALID,0,VALID,91.2121,VALID,0,VALID,24.3842,VALID,135,VALID,0.590234,
2010-08-05, 03:11:04,VALID,998.507,VALID,0,VALID,91.09,VALID,0,VALID,24.3629,VALID,132,VALID,0,
2010-08-05, 03:12:04,VALID,998.5,VALID,0,VALID,90.9146,VALID,0,VALID,24.3842,VALID,106,VALID,0,
2010-08-05, 03:13:04,VALID,998.498,VALID,0,VALID,90.8001,VALID,0,VALID,24.3824,VALID,106,VALID,0,
2010-08-05, 03:14:04,VALID,998.532,VALID,0,VALID,90.6933,VALID,0,VALID,24.4233,VALID,106,VALID,0,
2010-08-05, 03:15:04,VALID,998.527,VALID,0,VALID,90.5941,VALID,0,VALID,24.4233,VALID,89,VALID,0,
2010-08-05, 03:16:04,VALID,998.561,VALID,0,VALID,90.5178,VALID,0,VALID,24.4214,VALID,89,VALID,0,
2010-08-05, 03:17:04,VALID,998.556,VALID,0,VALID,90.5026,VALID,0,VALID,24.4428,VALID,64,VALID,0,
2010-08-05, 03:18:04,VALID,998.578,VALID,0,VALID,90.4568,VALID,0,VALID,24.4428,VALID,63,VALID,0,
2010-08-05, 03:19:04,VALID,998.579,VALID,0,VALID,90.4263,VALID,0,VALID,24.4233,VALID,63,VALID,0,
2010-08-05, 03:20:04,VALID,998.571,VALID,0,VALID,90.3957,VALID,0.112286,VALID,24.4233,VALID,63,VALID,0,
2010-08-05, 03:21:04,VALID,998.567,VALID,0,VALID,90.3423,VALID,0,VALID,24.4019,VALID,63,VALID,0,
2010-08-05, 03:22:04,VALID,998.557,VALID,0,VALID,90.3652,VALID,0,VALID,24.4037,VALID,63,VALID,0,
2010-08-05, 03:23:04,VALID,998.55,VALID,0,VALID,90.4568,VALID,0,VALID,24.4037,VALID,63,VALID,0,
2010-08-05, 03:24:04,VALID,998.529,VALID,0,VALID,90.4797,VALID,0,VALID,24.4037,VALID,63,VALID,0,
2010-08-05, 03:25:04,VALID,998.521,VALID,0,VALID,90.4263,VALID,0,VALID,24.3629,VALID,63,VALID,0,
2010-08-05, 03:26:04,VALID,998.514,VALID,0,VALID,90.2737,VALID,0,VALID,24.3824,VALID,162,VALID,0,
2010-08-05, 03:27:04,VALID,998.516,VALID,0,VALID,90.0524,VALID,0,VALID,24.4233,VALID,162,VALID,0,
2010-08-05, 03:28:04,VALID,998.507,VALID,0,VALID,89.9151,VALID,0,VALID,24.4428,VALID,162,VALID,0,
2010-08-05, 03:29:04,VALID,998.508,VALID,0,VALID,89.526,VALID,0,VALID,24.4623,VALID,164,VALID,0,
2010-08-05, 03:30:04,VALID,998.511,VALID,0,VALID,89.236,VALID,0,VALID,24.48,VALID,173,VALID,0.0171875,
2010-08-05, 03:31:04,VALID,998.524,VALID,0,VALID,88.8469,VALID,0,VALID,24.519,VALID,152,VALID,1.20547,
2010-08-05, 03:32:04,VALID,998.529,VALID,0,VALID,88.6943,VALID,0,VALID,24.5385,VALID,147,VALID,1.25195,
2010-08-05, 03:33:04,VALID,998.526,VALID,0,VALID,88.2518,VALID,0,VALID,24.5989,VALID,159,VALID,0.908594,
2010-08-05, 03:34:04,VALID,998.557,VALID,0,VALID,88.0916,VALID,0,VALID,24.638,VALID,152,VALID,0.919531,
2010-08-05, 03:35:04,VALID,998.591,VALID,0,VALID,88.0763,VALID,0,VALID,24.677,VALID,152,VALID,0.351172,
2010-08-05, 03:36:04,VALID,998.593,VALID,0,VALID,87.9695,VALID,0,VALID,24.677,VALID,152,VALID,0,
2010-08-05, 03:37:04,VALID,998.622,VALID,0,VALID,88,VALID,0,VALID,24.6965,VALID,147,VALID,0,
2010-08-05, 03:38:04,VALID,998.629,VALID,0,VALID,88.1145,VALID,0,VALID,24.6751,VALID,157,VALID,0,
2010-08-05, 03:39:04,VALID,998.662,VALID,0,VALID,88.2594,VALID,0,VALID,24.677,VALID,143,VALID,0,
2010-08-05, 03:40:04,VALID,998.661,VALID,0,VALID,88.3663,VALID,0,VALID,24.6575,VALID,143,VALID,0,
2010-08-05, 03:41:04,VALID,998.699,VALID,0,VALID,88.4731,VALID,0,VALID,24.638,VALID,143,VALID,0,
2010-08-05, 03:42:04,VALID,998.698,VALID,0,VALID,88.6867,VALID,0,VALID,24.6184,VALID,143,VALID,0,
2010-08-05, 03:43:04,VALID,998.705,VALID,0,VALID,88.7935,VALID,0,VALID,24.558,VALID,143,VALID,0,
2010-08-05, 03:44:04,VALID,998.742,VALID,0,VALID,88.8698,VALID,0,VALID,24.5385,VALID,143,VALID,0,
2010-08-05, 03:45:04,VALID,998.746,VALID,0,VALID,89.0606,VALID,0,VALID,24.5209,VALID,143,VALID,0,
2010-08-05, 03:46:04,VALID,998.751,VALID,0,VALID,89.2055,VALID,0,VALID,24.5013,VALID,143,VALID,0,
2010-08-05, 03:47:04,VALID,998.748,VALID,0,VALID,89.2513,VALID,0,VALID,24.4604,VALID,143,VALID,0,
2010-08-05, 03:48:04,VALID,998.747,VALID,0,VALID,89.3581,VALID,0,VALID,24.4428,VALID,143,VALID,0,
2010-08-05, 03:49:04,VALID,998.738,VALID,0,VALID,89.5565,VALID,0,VALID,24.4233,VALID,143,VALID,0,
2010-08-05, 03:50:04,VALID,998.753,VALID,0,VALID,89.442,VALID,0,VALID,24.4233,VALID,142,VALID,0,
2010-08-05, 03:51:04,VALID,998.753,VALID,0,VALID,89.3047,VALID,0,VALID,24.3824,VALID,142,VALID,0,
2010-08-05, 03:52:04,VALID,998.754,VALID,0,VALID,89.2208,VALID,0,VALID,24.4233,VALID,142,VALID,0,
2010-08-05, 03:53:04,VALID,998.788,VALID,0,VALID,89.2284,VALID,0,VALID,24.4233,VALID,142,VALID,0,
2010-08-05, 03:54:04,VALID,998.789,VALID,0,VALID,88.9843,VALID,0,VALID,24.4214,VALID,142,VALID,0,
2010-08-05, 03:55:04,VALID,998.804,VALID,0,VALID,88.5646,VALID,0,VALID,24.4428,VALID,141,VALID,0,
2010-08-05, 03:56:04,VALID,998.807,VALID,0,VALID,88.4578,VALID,0,VALID,24.4604,VALID,141,VALID,0,